{"data":{"norad_id":61251,"epoch":"2026-09-21T00:51:29.761632Z","epoch_age_seconds":145785,"freshness":"FRESH","line1":"1 61251U 24175J   26264.03576113 -.00000618  00000+0 -24815-6 0  9992","line2":"2 61251  53.1588 173.5833 0000935  79.3367 280.7756 15.69708039114042","mean_motion":15.69708039,"eccentricity":9.35e-5,"inclination_deg":53.1588,"raan_deg":173.5833,"arg_perigee_deg":79.3367,"mean_anomaly_deg":280.7756,"bstar":-2.4815e-7,"rev_number":11404,"period_min":91.736804821193,"perigee_km":359.10237127164,"apogee_km":360.36235284234,"semimajor_km":6737.869362057,"source":"CELESTRAK","updated_at":"2026-09-22T09:00:49.349035Z"}}